Weather Roundup
Issued by NWS

Home | Current Version | Previous Version | Graphics & Text | Print | Product List | Glossary Off
Versions: 1 2 3 4 5 6 7 8 9 10 11 12 13 14 15 16 17 18 19 20 21 22 23 24 25 26 27 28 29 30 31 32 33 34 35 36 37 38 39 40 41 42 43 44 45 46 47 48 49 50

000
NZUS93 KARX 182059
HRRWXR

CURRENT HOURLY OBSERVATIONS ACROSS
MUCH OF THE UPPER MISSISSIPPI VALLEY
NATIONAL WEATHER SERVICE LA CROSSE WI
400 PM CDT SAT APR 18 2015


...SOUTHEAST MINNESOTA...


CITY           SKY/WX    TMP DP  RH WIND       PRES   REMARKS
ROCHESTER      CLOUDY    71  42  35 E16G22    29.96F
ROCHESTER/MAYO CLOUDY    71  39  31 E9G16     29.95F
WINONA         MOSUNNY   73  37  27 SE16G22   29.97F
AUSTIN         PTSUNNY   73  45  35 E18       29.91F
ALBERT LEA     CLOUDY    73  43  33 SE10G23   29.89F
DODGE CENTER   PTSUNNY   73  39  29 E16G23    29.94F
PRESTON        PTSUNNY   73  39  30 E16G22    29.96F
OWATONNA       CLOUDY    73  37  27 E14G21    29.93F
FARIBAULT      CLOUDY    73  39  29 E13       29.93F
$$

...ELSEWHERE IN MINNESOTA...


CITY           SKY/WX    TMP DP  RH WIND       PRES   REMARKS
MINNEAPOLIS    CLOUDY    70  34  26 E15       29.96F
INTNL FALLS    SUNNY     62  18  18 S10G23    30.04F
DULUTH         MOSUNNY   49  31  49 NE17      30.11F
RED WING       MOSUNNY   75  32  20 SE10      29.95F
REDWOOD FALLS  CLOUDY    73  39  29 S22       29.89F
MANKATO        CLOUDY    72  39  30 N6        29.92F
WORTHINGTON    CLOUDY    57  52  82 S8        29.92F
FAIRMONT       CLOUDY    59  46  63 S3        29.90F
$$

...SOUTHWEST WISCONSIN...


CITY           SKY/WX    TMP DP  RH WIND       PRES   REMARKS
LA CROSSE      MOSUNNY   75  36  24 SE16G23   29.98F
PRAIRIE DU CHI PTSUNNY   73  36  25 E18G25    29.97F
BOSCOBEL       PTSUNNY   73  37  27 E13G18    29.99F
LONE ROCK      NOT AVBL
PLATTEVILLE    SUNNY     73  37  27 E17G24    30.00F
FORT MC COY    SUNNY     71  30  22 E17       30.03F
VIROQUA        FAIR      71  37  28 E14G24    30.01F
WIS DELLS      SUNNY     66  32  28 E15G23    30.06F
$$

...ELSEWHERE IN WISCONSIN...


CITY           SKY/WX    TMP DP  RH WIND       PRES   REMARKS
MILWAUKEE      MOSUNNY   47  34  60 N22G30    30.10F
MADISON        PTSUNNY   68  32  26 E13G23    30.05F
GREEN BAY      MOSUNNY   57  34  41 NE17      30.16F
EAU CLAIRE     NOT AVBL
BLACK RVR FLS  FAIR      72  27  19 E12G22    30.03F
MEDFORD        PTSUNNY   61  28  29 SE12G17   30.09F
WAUSAU         PTSUNNY   60  14  16 SE15G24   30.10F
WIS RAPIDS     MOSUNNY   64  29  26 E18G26    30.10F
MARSHFIELD     PTSUNNY   65  25  22 E17G24    30.08F
RICE LAKE      PTSUNNY   69  31  24 SE14      30.05F
$$

...NORTHEAST IOWA...


CITY           SKY/WX    TMP DP  RH WIND       PRES   REMARKS
DECORAH        PTSUNNY   72  43  35 E17G25    29.95F
MASON CITY     LGT RAIN  66  54  65 S18G24    29.90S
CHARLES CITY   CLOUDY    75  46  35 SE23      29.90F
OELWEIN        PTSUNNY   77  48  36 SE24      29.92F
$$

...ELSEWHERE IN IOWA...


CITY           SKY/WX    TMP DP  RH WIND       PRES   REMARKS
DES MOINES     LGT RAIN  62  58  86 S7        29.89F
IOWA CITY      CLOUDY    76  55  48 SE13      29.91F
FORT DODGE     CLOUDY    57  52  82 S7        29.92R
$$

...NORTHERN ILLINOIS...


CITY           SKY/WX    TMP DP  RH WIND       PRES   REMARKS
CHICAGO-OHARE  PTSUNNY   57  37  47 NE14      30.04F
CHICAGO-MIDWAY PTSUNNY   57  38  48 NE15      30.03F
MOLINE         PTSUNNY   73  54  51 NE16      29.91S
ROCKFORD       CLOUDY    72  36  26 E15G21    30.01F
PEORIA         PTSUNNY   81  48  31 E9        29.93F
$$

NOTE: "FAIR" INDICATES FEW OR NO CLOUDS BELOW 12,000 FEET WITH NO
SIGNIFICANT WEATHER AND/OR OBSTRUCTIONS TO VISIBILITY. WIND
SPEEDS ARE IN MILES-PER-HOUR.



USA.gov is the U.S. government's official web portal to all federal, state and local government web resources and services.